Location: Sevilla
(37.3933°N, 5.9839°W)
Time: 04:27:51
(UTC+02:00)

Tiros 1 despin weight - Pass Details

Date: 03 July 2024
Orbit: 576 x 620 km, 48.2° (Epoch: 22 July)

Event Time Altitude Azimuth Distance (km) Brightness Sun altitude
Rises 08:21:33 0° 190° (S) 2,817 ? 12.4°
Reaches altitude 10° 08:24:34 10° 168° (SSE) 1,930 ? 13.0°
Maximum altitude 08:27:16 16° 131° (SE) 1,591 ? 13.5°
Drops below altitude 10° 08:29:59 10° 93° (E) 1,955 ? 14.0°
Sets 08:33:03 0° 72° (ENE) 2,872 ? 14.6°
